Back to catalog

FENGYUN 1C DEB

AliveSSO
NORAD 31024·DEBRIS·🇨🇳 China

Launched May 10, 1999 from Taiyuan Satellite Launch Center

Loading…

Next Passes (next 24 hours)

TLE

FreshSource: Space-Track

Epoch: Sep 14, 2026, 01:29 UTC

1 31024U 99025BDS 26257.06213936  .00000371  00000-0  18652-3 0  9993
2 31024  99.0404 181.8535 0075429  58.6739 302.1793 14.21174569  6128

Track FENGYUN 1C DEB in real time with AllMySat

Download on the App Store